Flag for Brazil Weather past 2 weeks in Campinas, São Paulo, Brazil

Now
73 °F

Clear.


Feels Like: 74 °F
Forecast: 63 / 87 °F
Wind: 3 mph from North

Location: Campinas Aeroporto

Current Time: Feb 27, 2015 at 8:59:54 AM

Latest Report: Feb 27, 2015 at 8:00 AM


Visibility: 4 mi

Pressure: 29.98 "Hg

Humidity: 78%

Dew point: 66 °F

Location of CampinasLocation

Historic Weather in Campinas — Graph

°F

Campinas temperature yesterday

Maximum temperature yesterday: 86 °F (at 4:00 PM)
Minimum temperature yesterday: 68 °F (at 12:00 AM)
Average temperature yesterday: 76 °F

Past Weeks' High & Low Weather Summary

 TemperatureHumidityPressure
High90 °F (Feb 12, 4:00 PM)100% (Feb 15, 9:00 PM)30.18 "Hg (Feb 15, 9:00 PM)
Low37 °F (Feb 19, 5:00 PM)33% (Feb 23, 3:00 PM)29.89 "Hg (Feb 17, 6:00 PM)
Average76 °F74%30.03 "Hg
* Reported Feb 12 9:00 AM — Feb 27 8:00 AM, Campinas, Weather by CustomWeather, © 2015

Note: Actual official high and low records may vary slightly from our data, if they occured in-between our weather recording intervals... More about our weather records

Advertising

Campinas weather history for previous 24 hours

 ConditionsComfort  
Time TempWeatherWind HumidityBarometerVisibility
8:00 AM
Fri, Feb 27
73 °FClear.3 mph78%29.98 "Hg4 mi
7:00 AM72 °FClear.2 mph83%29.98 "Hg4 mi
6:00 AM68 °FSunny.5 mph94%29.98 "Hg10 mi
5:00 AM70 °FClear.No wind83%29.98 "Hg10 mi
4:00 AM72 °FClear.6 mph78%29.95 "Hg10 mi
3:00 AM70 °FClear.6 mph83%29.95 "Hg10 mi
2:00 AM72 °FClear.7 mph78%29.95 "Hg10 mi
1:00 AM72 °FClear.8 mph78%29.95 "Hg10 mi
12:00 AM73 °FClear.9 mph74%29.98 "Hg10 mi
11:00 PM
Thu, Feb 26
75 °FClear.9 mph69%29.98 "Hg10 mi
10:00 PM75 °FThundershowers. Passing clouds.8 mph69%29.95 "HgN/A
9:00 PM77 °FThundershowers. Passing clouds.8 mph69%29.95 "HgN/A
8:00 PM81 °FPassing clouds.5 mph58%29.92 "HgN/A
7:00 PM82 °FPassing clouds.5 mph55%29.92 "HgN/A
6:00 PM84 °FPassing clouds.6 mph45%29.89 "HgN/A
5:00 PM86 °FPassing clouds.6 mph46%29.92 "HgN/A
4:00 PM86 °FPassing clouds.7 mph46%29.92 "HgN/A
3:00 PM84 °FPassing clouds.6 mph48%29.95 "HgN/A
2:00 PM84 °FScattered clouds.8 mph48%29.98 "HgN/A
1:00 PM82 °FPassing clouds.5 mph51%30.01 "HgN/A
12:00 PM81 °FPassing clouds.6 mph51%30.04 "HgN/A
11:00 AM79 °FPassing clouds.8 mph58%30.04 "HgN/A
10:00 AM75 °FPassing clouds.6 mph69%30.07 "HgN/A
9:00 AM73 °FScattered clouds.5 mph74%30.07 "HgN/A
8:00 AM72 °FScattered clouds.6 mph88%30.07 "Hg4 mi
Weather by CustomWeather, © 2015

See weather overviewHow to use our weather pages